Location: Eindhoven
(51.4416°N, 5.4697°E)
Time: 13:29:35
(UTC+01:00)

deb Explorer IX - Pass Details

Date: 25 November 2019
Orbit: 545 x 1105 km, 38.8° (Epoch: 08 December)

Event Time Altitude Azimuth Distance (km) Brightness Sun altitude
Rises 22:50:28 0° 217° (SW) 3,910 - -54.2°
Reaches altitude 10° 22:54:05 10° 202° (SSW) 2,935 - -54.6°
Maximum altitude 22:58:57 20° 159° (SSE) 2,242 - -55.1°
Drops below altitude 10° 23:03:37 10° 116° (ESE) 2,780 - -55.5°
Sets 23:06:54 0° 100° (E) 3,642 - -55.8°
